User: anonymous   Login
Location: Asni�res
(49.1337°N, 2.3555°E)
Time: 15:40:33
(UTC+00:00)
Language:

Landsat 5 - Orbit

View from above orbital plane
View from above orbital plane
View from above satellite
View from above satellite

Ground track
Ground track

The orbit data is extracted from the following two-line orbital elements,

1 14780U 84021A   22023.07459051  .00000731  00000-0  72013-4 0  9993
2 14780  98.2054 214.7697 0090198  45.5431 315.3119 14.92542489 26509
Epoch (UTC): 23 January 2022 01:47:24
Eccentricity: 0.0090198
inclination: 98.2054°
perigee height: 527 km
apogee height: 653 km
right ascension of ascending node: 214.7697°
argument of perigee: 45.5431°
revolutions per day: 14.92542489
mean anomaly at epoch: 315.3119°
orbit number at epoch: 2650

The dashed part of the orbit path shows where the satellite is in the earth's shadow,  

DLR